Flag for Germany Weather past 2 weeks in Geesthacht, Schleswig-Holstein, Germany

Now
37 °F

Partly cloudy.


Feels Like: 30 °F
Forecast: 34 / 38 °F
Wind: 10 mph from Southwest

Location: Hamburg-Fuhlsbuettel

Current Time: Jan 28, 2015 at 5:29:33 AM

Latest Report: Jan 28, 2015 at 4:50 AM


Visibility: 4 mi

Pressure: 29.89 "Hg

Humidity: 100%

Dew point: 37 °F

Location of GeesthachtLocation

Historic Weather in Geesthacht — Graph

°F

Geesthacht temperature yesterday

Maximum temperature yesterday: 43 °F (at 11:20 AM)
Minimum temperature yesterday: 36 °F (at 9:50 PM)
Average temperature yesterday: 39 °F

Past Weeks' High & Low Weather Summary

 TemperatureHumidityPressure
High50 °F (Jan 15, 8:20 PM)100% (Jan 13, 9:20 PM)30.30 "Hg (Jan 13, 9:20 PM)
Low25 °F (Jan 21, 5:50 AM)70% (Jan 17, 12:50 PM)29.33 "Hg (Jan 15, 6:50 PM)
Average36 °F91%29.91 "Hg
* Reported Jan 13 4:20 AM — Jan 28 4:20 AM, Geesthacht, Weather by CustomWeather, © 2014

Note: Actual official high and low records may vary slightly from our data, if they occured in-between our weather recording intervals... More about our weather records

Advertising

Geesthacht weather history for previous 24 hours

 ConditionsComfort  
Time TempWeatherWind HumidityBarometerVisibility
4:20 AM
Jan 28
37 °FPassing clouds.13 mph100%29.92 "Hg4 mi
3:50 AM37 °FPassing clouds.10 mph100%29.95 "Hg4 mi
3:20 AM37 °FLow clouds.10 mph100%29.95 "Hg4 mi
2:50 AM37 °FFog.9 mph100%29.98 "Hg3 mi
2:20 AM37 °FLow clouds.8 mph100%29.98 "Hg4 mi
1:50 AM37 °FLow clouds.8 mph100%30.01 "Hg4 mi
1:20 AM37 °FFog.8 mph100%30.01 "Hg3 mi
12:50 AM37 °FPassing clouds.8 mph100%30.01 "Hg4 mi
12:20 AM37 °FPassing clouds.8 mph100%30.01 "Hg4 mi
11:50 PM
Jan 27
37 °FFog.8 mph100%30.04 "Hg2 mi
11:20 PM37 °FFog.8 mph100%30.04 "Hg2 mi
10:50 PM37 °FFog.9 mph93%30.04 "Hg2 mi
10:20 PM36 °FPassing clouds.7 mph100%30.04 "Hg4 mi
9:50 PM36 °FPassing clouds.5 mph100%30.04 "HgN/A
9:20 PM37 °FClear.8 mph93%30.07 "Hg10 mi
8:50 PM37 °FClear.8 mph93%30.07 "Hg10 mi
8:20 PM37 °FPassing clouds.8 mph93%30.07 "HgN/A
7:50 PM37 °FClear.9 mph93%30.04 "Hg10 mi
7:20 PM37 °FClear.8 mph93%30.04 "Hg10 mi
6:50 PM37 °FClear.8 mph93%30.04 "Hg10 mi
6:20 PM39 °FClear.9 mph87%30.04 "Hg10 mi
5:50 PM39 °FClear.8 mph87%30.04 "Hg10 mi
5:20 PM41 °FPassing clouds.9 mph81%30.04 "HgN/A
4:50 PM41 °FScattered clouds.12 mph81%30.04 "HgN/A
4:20 PM43 °FScattered clouds.13 mph76%30.01 "HgN/A
3:50 PM43 °FScattered clouds.12 mph76%30.01 "HgN/A
3:20 PM43 °FPartly sunny.17 mph71%30.01 "HgN/A
2:50 PM43 °FPartly sunny.14 mph76%30.01 "HgN/A
2:20 PM43 °FPartly sunny.16 mph81%30.01 "HgN/A
1:50 PM43 °FPartly sunny.17 mph76%29.98 "HgN/A
1:20 PM43 °FPartly sunny.16 mph81%29.98 "HgN/A
12:50 PM43 °FPartly sunny.15 mph81%29.98 "HgN/A
12:20 PM43 °FBroken clouds.15 mph81%29.98 "HgN/A
11:50 AM43 °FScattered clouds.15 mph76%29.98 "HgN/A
11:20 AM43 °FScattered clouds.16 mph76%29.98 "HgN/A
10:50 AM41 °FSunny.16 mph81%29.98 "Hg10 mi
10:20 AM39 °FSunny.13 mph87%29.98 "Hg10 mi
9:50 AM39 °FSunny.12 mph87%29.98 "Hg10 mi
9:20 AM37 °FSunny.10 mph87%29.98 "Hg10 mi
8:50 AM37 °FSunny.12 mph87%29.98 "Hg10 mi
8:20 AM37 °FSunny.10 mph87%29.98 "Hg10 mi
7:50 AM37 °FClear.12 mph87%29.95 "Hg10 mi
7:20 AM37 °FClear.13 mph93%29.95 "Hg10 mi
6:50 AM37 °FClear.13 mph93%29.95 "Hg10 mi
6:20 AM37 °FPassing clouds.13 mph93%29.95 "HgN/A
5:50 AM37 °FPassing clouds.14 mph93%29.95 "HgN/A
5:20 AM37 °FPassing clouds.13 mph93%29.92 "HgN/A
Weather by CustomWeather, © 2014

See weather overviewHow to use our weather pages